GW3792 Weather Reports


time (UTC)temp
C
wind
direction
speed
KPH
gust
KPH
rain 1hr
cm
rain 24hr
cm
rain mn
cm
humidity
%
barometer
mb
20260508061215 20 294 27.4 49.9 0.00 0.03 0.00 72 1006.9
20260508060546 20 275 27.4 46.7 0.00 0.03 0.00 72 1007.1
20260508060305 20 279 25.7 46.7 0.00 0.03 0.00 73 1007.3
20260508055537 20 268 20.9 45.1 0.00 0.03 0.00 73 1007.3
20260508055028 20 265 27.4 53.1 0.00 0.03 0.00 73 1007.4
20260508054914 20 288 22.5 53.1 0.00 0.03 0.00 72 1007.6
20260508054038 20 259 20.9 53.1 0.00 0.03 0.00 72 1007.9
20260508053531 20 277 32.2 53.1 0.00 0.03 0.00 72 1007.9
20260508053132 20 265 22.5 45.1 0.00 0.03 0.00 72 1008.0
20260508052535 20 259 32.2 45.1 0.00 0.03 0.00 72 1008.5
20260508052024 20 269 32.2 46.7 0.00 0.03 0.00 73 1008.3
20260508051712 20 265 29.0 46.7 0.00 0.03 0.00 73 1008.1
20260508051022 20 268 24.1 48.3 0.00 0.03 0.00 73 1007.7
20260508050541 20 261 29.0 48.3 0.00 0.03 0.00 73 1007.4
20260508050208 20 261 30.6 57.9 0.00 0.03 0.00 73 1007.2
20260508045529 20 263 27.4 57.9 0.00 0.03 0.00 73 1007.3
20260508045025 20 259 30.6 56.3 0.00 0.03 0.00 73 1007.2
20260508044717 20 340 27.4 53.1 0.00 0.03 0.00 73 1007.0
20260508044041 20 259 32.2 53.1 0.00 0.03 0.00 73 1007.1
20260508043551 20 277 35.4 61.2 0.00 0.03 0.00 73 1006.7
20260508043146 20 267 38.6 61.2 0.00 0.03 0.00 72 1006.7
20260508042537 20 265 32.2 72.4 0.00 0.03 0.00 72 1006.6
20260508042041 20 263 48.3 72.4 0.00 0.03 0.00 72 1006.7
20260508041633 20 266 45.1 75.6 0.00 0.03 0.00 72 1006.8
20260508041042 20 273 38.6 83.7 0.00 0.03 0.00 72 1006.6
20260508040531 20 273 38.6 83.7 0.00 0.03 0.00 72 1006.9
20260508040148 20 267 43.5 67.6 0.00 0.03 0.00 72 1006.6
20260508035532 20 281 43.5 67.6 0.00 0.03 0.00 72 1006.8
20260508035026 20 265 37.0 66.0 0.00 0.03 0.00 72 1006.8
20260508034633 20 275 43.5 66.0 0.00 0.03 0.00 72 1006.8
20260508034030 20 259 43.5 66.0 0.00 0.03 0.00 72 1006.8
20260508033529 20 259 40.2 66.0 0.00 0.03 0.00 72 1006.8
20260508033129 20 259 38.6 66.0 0.00 0.03 0.00 72 1006.9
20260508032543 20 262 41.8 66.0 0.00 0.03 0.00 72 1006.9
20260508032041 20 269 35.4 66.0 0.00 0.03 0.00 72 1007.0
20260508031631 20 263 37.0 64.4 0.00 0.03 0.00 72 1007.0
20260508031026 20 341 33.8 64.4 0.00 0.03 0.00 71 1007.2
20260508030542 20 261 35.4 62.8 0.00 0.03 0.00 71 1007.4
20260508030131 20 255 33.8 61.2 0.00 0.03 0.00 71 1007.5
20260508025540 20 269 38.6 61.2 0.00 0.03 0.03 71 1007.6
20260508025030 20 261 32.2 57.9 0.00 0.03 0.03 71 1007.8
20260508024630 20 259 38.6 54.7 0.00 0.03 0.03 71 1007.7
20260508024024 20 259 33.8 62.8 0.00 0.03 0.03 71 1008.2
20260508023526 20 261 37.0 62.8 0.00 0.03 0.03 71 1008.1
20260508023125 20 259 30.6 48.3 0.00 0.03 0.03 72 1008.2
20260508022522 20 265 30.6 49.9 0.00 0.03 0.03 72 1008.3
20260508022040 20 342 29.0 54.7 0.00 0.03 0.03 72 1008.5
20260508021618 20 261 37.0 54.7 0.00 0.03 0.03 72 1008.7
20260508021039 20 266 25.7 59.5 0.00 0.03 0.03 72 1008.6
20260508020530 20 261 37.0 59.5 0.00 0.03 0.03 72 1008.6
20260508020141 20 265 29.0 59.5 0.00 0.03 0.03 72 1008.9
20260508015525 20 262 35.4 59.5 0.00 0.03 0.03 72 1008.8
20260508015021 20 272 25.7 45.1 0.00 0.03 0.03 73 1008.9
20260508014629 20 300 25.7 53.1 0.00 0.03 0.03 73 1009.1
20260508014022 20 275 30.6 53.1 0.00 0.03 0.03 73 1008.9
20260508013522 19 270 27.4 46.7 0.00 0.03 0.03 74 1009.0
20260508013108 19 270 19.3 38.6 0.00 0.03 0.03 74 1009.1
20260508012527 19 289 24.1 41.8 0.00 0.03 0.03 74 1009.1
20260508012043 19 295 22.5 41.8 0.00 0.03 0.03 74 1009.1
20260508011638 20 269 22.5 46.7 0.00 0.03 0.03 74 1009.1
20260508011039 20 287 22.5 46.7 0.00 0.03 0.03 74 1009.1
20260508010529 20 269 25.7 41.8 0.00 0.03 0.03 74 1009.1
20260508010134 19 269 19.3 43.5 0.00 0.03 0.03 74 1009.2
20260508005517 19 271 22.5 43.5 0.00 0.03 0.03 74 1009.2
20260508005030 19 277 22.5 40.2 0.00 0.03 0.03 74 1009.1
20260508004624 19 267 19.3 32.2 0.00 0.03 0.03 74 1009.3
20260508004016 19 305 16.1 30.6 0.00 0.03 0.03 74 1009.1
20260508003517 19 268 16.1 27.4 0.00 0.03 0.03 74 1009.0
20260508003202 19 265 14.5 22.5 0.00 0.03 0.03 74 1009.0
20260508002526 19 262 12.9 22.5 0.00 0.03 0.03 74 1009.1
20260508002039 19 273 12.9 22.5 0.00 0.03 0.03 74 1009.0
20260508001648 20 289 12.9 22.5 0.00 0.03 0.03 74 1009.0
20260508001042 20 307 11.3 24.1 0.00 0.03 0.03 73 1009.0
20260508000523 20 328 11.3 24.1 0.00 0.03 0.03 73 1009.2
20260508000212 20 317 9.7 25.7 0.00 0.03 0.03 73 1009.0
20260507235533 20 314 14.5 25.7 0.00 0.03 0.03 73 1009.1
20260507235028 20 275 14.5 24.1 0.00 0.03 0.03 73 1009.1
20260507234637 20 284 12.9 24.1 0.00 0.03 0.03 73 1009.2
20260507234018 20 317 9.7 24.1 0.00 0.03 0.03 73 1009.2
20260507233523 20 265 9.7 25.7 0.00 0.03 0.03 73 1009.1
20260507233123 20 279 12.9 29.0 0.00 0.03 0.03 73 1009.3
20260507232523 20 292 14.5 29.0 0.00 0.03 0.03 73 1009.3
20260507232036 20 269 12.9 25.7 0.00 0.03 0.03 73 1009.4
20260507231654 20 344 11.3 25.7 0.00 0.03 0.03 72 1009.3
20260507231042 20 342 14.5 25.7 0.00 0.03 0.03 72 1009.4
20260507230539 20 282 9.7 19.3 0.00 0.03 0.03 72 1009.3
20260507230126 20 298 9.7 22.5 0.00 0.03 0.03 72 1009.4
20260507225516 20 221 12.9 22.5 0.00 0.03 0.03 72 1009.6
20260507225047 20 261 9.7 22.5 0.00 0.03 0.03 72 1009.5
20260507224653 20 298 8.0 24.1 0.00 0.03 0.03 72 1009.6
20260507224035 20 281 9.7 20.9 0.00 0.03 0.03 72 1009.6
20260507223541 20 247 8.0 20.9 0.00 0.03 0.03 72 1009.6
20260507223211 20 262 8.0 22.5 0.00 0.03 0.03 72 1009.6
20260507222542 20 286 9.7 24.1 0.00 0.03 0.03 72 1009.6
20260507222037 20 271 9.7 24.1 0.00 0.03 0.03 72 1009.7
20260507221619 20 261 8.0 22.5 0.00 0.03 0.03 72 1009.8
20260507221029 20 344 11.3 22.5 0.00 0.03 0.03 72 1009.8
20260507220517 20 300 9.7 19.3 0.00 0.03 0.03 72 1010.0
20260507220148 20 309 8.0 17.7 0.00 0.03 0.03 72 1009.9
20260507215534 20 93 6.4 20.9 0.00 0.03 0.03 72 1009.8
20260507215042 20 272 8.0 20.9 0.00 0.03 0.03 71 1009.9
20260507214632 21 319 6.4 22.5 0.00 0.03 0.03 71 1010.0
20260507214035 21 23 9.7 24.1 0.00 0.03 0.03 71 1009.9
20260507213521 21 51 11.3 27.4 0.00 0.03 0.03 71 1010.1
20260507213154 21 286 9.7 27.4 0.00 0.03 0.03 71 1010.0
20260507212545 21 329 12.9 22.5 0.00 0.03 0.03 71 1010.0
20260507212025 21 279 11.3 22.5 0.00 0.03 0.03 71 1009.9
20260507211641 21 298 11.3 22.5 0.00 0.03 0.03 70 1010.1
20260507211043 21 261 9.7 22.5 0.00 0.03 0.03 70 1010.0
20260507210530 21 28 8.0 19.3 0.00 0.03 0.03 70 1010.0
20260507210134 21 291 4.8 19.3 0.00 0.03 0.03 70 1009.9
20260507205516 21 325 8.0 19.3 0.00 0.03 0.03 70 1009.8
20260507205029 21 265 4.8 24.1 0.00 0.03 0.03 70 1010.0
20260507204614 21 288 12.9 24.1 0.00 0.03 0.03 69 1010.1
20260507204045 21 257 11.3 22.5 0.00 0.03 0.03 70 1010.0
20260507203544 21 262 9.7 24.1 0.00 0.03 0.03 69 1010.2
20260507203121 21 262 14.5 24.1 0.00 0.03 0.03 69 1010.4
20260507202531 21 261 12.9 19.3 0.00 0.03 0.03 68 1010.3
20260507202038 22 273 11.3 29.0 0.00 0.03 0.03 68 1010.2
20260507201622 22 275 14.5 20.9 0.00 0.03 0.03 67 1010.3
20260507201033 22 277 11.3 24.1 0.00 0.03 0.03 67 1010.1
20260507200542 22 334 14.5 25.7 0.00 0.03 0.03 66 1010.0
20260507200131 22 267 16.1 25.7 0.00 0.03 0.03 66 1009.9
20260507195539 22 280 12.9 30.6 0.00 0.03 0.03 66 1010.1
20260507195028 22 280 16.1 30.6 0.00 0.03 0.03 66 1010.2
20260507194632 22 310 17.7 32.2 0.00 0.03 0.03 66 1009.9
20260507194015 22 265 14.5 32.2 0.00 0.03 0.03 66 1010.0
20260507193531 22 286 14.5 27.4 0.00 0.03 0.03 67 1009.8
20260507193131 22 277 16.1 43.5 0.00 0.03 0.03 67 1009.7
20260507192526 22 263 25.7 43.5 0.00 0.03 0.03 66 1009.8
20260507192023 22 257 17.7 29.0 0.00 0.03 0.03 67 1009.8
20260507191635 22 267 16.1 24.1 0.00 0.03 0.03 68 1009.8
20260507191020 22 288 11.3 20.9 0.00 0.03 0.03 68 1009.8
20260507190529 22 261 14.5 22.5 0.00 0.03 0.03 68 1009.8
20260507190140 22 261 14.5 25.7 0.00 0.03 0.03 68 1009.8
20260507185516 22 271 16.1 27.4 0.00 0.03 0.03 67 1009.4
20260507185045 22 261 12.9 27.4 0.00 0.03 0.03 67 1009.5
20260507184625 22 265 14.5 27.4 0.00 0.03 0.03 67 1009.6
20260507184017 22 281 14.5 41.8 0.00 0.03 0.03 67 1009.4
20260507183521 22 262 16.1 41.8 0.00 0.03 0.03 67 1009.4
20260507183057 22 268 17.7 30.6 0.00 0.03 0.03 67 1009.5
20260507182516 22 281 14.5 37.0 0.00 0.03 0.03 67 1009.4
20260507182044 22 265 22.5 41.8 0.00 0.03 0.03 66 1009.2
20260507181622 22 268 17.7 41.8 0.00 0.03 0.03 66 1009.4
20260507181024 22 267 22.5 41.8 0.00 0.03 0.03 65 1009.4
20260507180546 22 262 19.3 33.8 0.00 0.03 0.03 65 1009.4
20260507180123 22 280 22.5 49.9 0.00 0.03 0.03 64 1009.3
20260507175533 22 277 25.7 51.5 0.00 0.03 0.03 64 1009.4
20260507175035 23 288 29.0 51.5 0.00 0.03 0.03 63 1009.6
20260507174638 23 257 25.7 53.1 0.00 0.03 0.03 63 1009.6
20260507174025 23 263 35.4 53.1 0.00 0.03 0.03 62 1009.6
20260507173546 23 266 33.8 53.1 0.00 0.03 0.03 62 1009.6
20260507173132 23 281 22.5 49.9 0.00 0.03 0.03 62 1009.7
20260507172532 23 290 29.0 56.3 0.00 0.03 0.03 63 1009.6
20260507172026 23 262 25.7 67.6 0.00 0.03 0.03 63 1009.8
20260507171606 24 259 38.6 61.2 0.00 0.03 0.03 61 1009.8
20260507171041 25 259 29.0 62.8 0.00 0.03 0.03 60 1009.8
20260507170533 25 261 41.8 62.8 0.00 0.03 0.03 61 1009.7
20260507170117 25 265 33.8 56.3 0.00 0.03 0.03 62 1010.1
20260507165542 25 277 29.0 56.3 0.00 0.03 0.03 61 1010.1
20260507165042 25 265 24.1 53.1 0.00 0.03 0.03 63 1010.0
20260507164641 25 263 32.2 53.1 0.00 0.03 0.03 63 1010.1
20260507164020 24 261 27.4 62.8 0.00 0.03 0.03 63 1010.1
20260507163527 24 277 35.4 62.8 0.00 0.03 0.03 63 1010.2
20260507163133 23 257 37.0 62.8 0.00 0.03 0.03 62 1010.2
20260507162540 23 294 33.8 62.8 0.00 0.03 0.03 64 1010.5
20260507162035 23 261 35.4 57.9 0.00 0.03 0.03 64 1010.6
20260507161631 23 263 33.8 64.4 0.00 0.03 0.03 62 1010.7
20260507161029 23 293 37.0 64.4 0.00 0.03 0.03 62 1010.7
20260507160541 23 261 29.0 70.8 0.00 0.03 0.03 63 1010.8
20260507160137 23 261 33.8 70.8 0.00 0.03 0.03 62 1010.8
20260507155535 23 280 38.6 56.3 0.00 0.03 0.03 62 1010.9
20260507155026 23 268 32.2 62.8 0.00 0.03 0.03 63 1010.9
20260507154639 24 284 33.8 62.8 0.00 0.03 0.03 62 1010.9
20260507154041 24 275 37.0 61.2 0.00 0.03 0.03 64 1011.0
20260507153548 24 272 33.8 54.7 0.00 0.03 0.03 64 1011.1
20260507153133 24 268 22.5 54.7 0.00 0.03 0.03 64 1011.2
20260507152545 23 261 24.1 53.1 0.00 0.03 0.03 65 1011.0
20260507152043 23 263 30.6 54.7 0.00 0.03 0.03 63 1011.1
20260507151635 23 268 38.6 57.9 0.00 0.03 0.03 64 1011.6
20260507151041 23 286 25.7 57.9 0.00 0.03 0.03 66 1011.9
20260507150520 23 269 25.7 51.5 0.00 0.03 0.03 67 1011.9
20260507150142 22 261 30.6 45.1 0.00 0.03 0.03 68 1012.2
20260507145532 22 264 22.5 49.9 0.00 0.03 0.03 69 1012.2
20260507145034 21 261 22.5 43.5 0.00 0.03 0.03 71 1012.2
20260507144635 21 259 25.7 43.5 0.00 0.03 0.03 71 1012.3
20260507144027 21 265 24.1 49.9 0.00 0.03 0.03 71 1012.5
20260507143542 21 306 27.4 49.9 0.00 0.03 0.03 71 1012.8
20260507143103 21 259 22.5 46.7 0.00 0.03 0.03 71 1012.8
20260507142541 22 255 24.1 45.1 0.00 0.03 0.03 70 1013.2
20260507142019 22 294 27.4 49.9 0.00 0.03 0.03 70 1013.2
20260507141634 22 281 32.2 49.9 0.00 0.03 0.03 71 1013.3
20260507141037 22 272 22.5 45.1 0.00 0.03 0.03 72 1013.5
20260507140533 21 257 25.7 49.9 0.00 0.03 0.03 71 1013.6
20260507140141 21 282 27.4 49.9 0.00 0.03 0.03 71 1013.8
20260507135530 21 272 29.0 43.5 0.00 0.03 0.03 71 1013.9
20260507135024 21 263 17.7 37.0 0.00 0.03 0.03 72 1014.0
20260507134634 21 297 19.3 30.6 0.00 0.03 0.03 73 1014.0
20260507134021 21 265 17.7 33.8 0.00 0.03 0.03 72 1014.2
20260507133521 21 263 20.9 33.8 0.00 0.03 0.03 72 1014.2
20260507133153 21 261 14.5 37.0 0.00 0.03 0.03 73 1014.4
20260507132526 21 265 20.9 46.7 0.00 0.03 0.03 73 1014.4
20260507132041 20 293 24.1 46.7 0.00 0.03 0.03 73 1014.4
20260507131647 20 277 16.1 41.8 0.00 0.03 0.03 74 1014.6
20260507131044 21 273 20.9 41.8 0.00 0.03 0.03 74 1014.4
20260507130541 21 288 20.9 40.2 0.00 0.03 0.03 73 1014.5
20260507130154 21 277 20.9 40.2 0.00 0.03 0.03 74 1014.4
20260507125526 21 281 25.7 40.2 0.00 0.03 0.03 75 1014.5
20260507125042 20 282 16.1 29.0 0.00 0.03 0.03 77 1014.7
20260507124653 20 259 19.3 37.0 0.00 0.03 0.03 77 1014.7
20260507124019 20 262 20.9 37.0 0.00 0.03 0.03 77 1014.7
20260507123517 20 271 17.7 38.6 0.00 0.03 0.03 77 1014.9
20260507123201 20 271 19.3 38.6 0.00 0.03 0.03 77 1014.7
20260507122529 19 247 16.1 32.2 0.00 0.03 0.03 77 1014.7
20260507122036 19 261 17.7 32.2 0.00 0.03 0.03 78 1014.8
20260507121700 19 269 17.7 27.4 0.00 0.03 0.03 79 1014.7
20260507121026 18 287 12.9 27.4 0.00 0.03 0.03 80 1015.0
20260507120520 18 261 16.1 25.7 0.00 0.03 0.03 81 1014.9
20260507120155 18 298 14.5 25.7 0.00 0.03 0.03 81 1015.1
20260507115526 18 273 14.5 27.4 0.00 0.03 0.03 82 1015.2
20260507115040 18 347 16.1 27.4 0.00 0.03 0.03 82 1015.4
20260507114707 18 262 11.3 32.2 0.00 0.03 0.03 82 1015.2
20260507114026 18 292 14.5 32.2 0.00 0.03 0.03 81 1015.2
20260507113524 18 273 12.9 30.6 0.00 0.03 0.03 82 1015.3
20260507113126 18 284 12.9 27.4 0.00 0.03 0.03 82 1015.3
20260507112515 18 267 11.3 27.4 0.00 0.03 0.03 82 1015.3
20260507112028 18 254 12.9 22.5 0.00 0.03 0.03 82 1015.4
20260507111700 18 261 9.7 22.5 0.00 0.03 0.03 82 1015.4
20260507111024 18 323 8.0 20.9 0.00 0.03 0.03 82 1015.3
20260507110533 18 286 11.3 20.9 0.00 0.03 0.03 82 1015.4
20260507110205 17 310 11.3 20.9 0.00 0.03 0.03 82 1015.5
20260507105538 17 305 8.0 20.9 0.00 0.03 0.03 82 1015.4
20260507105031 17 9 12.9 24.1 0.03 0.03 0.03 83 1015.4
20260507104655 17 309 11.3 24.1 0.03 0.03 0.03 83 1015.2
20260507104015 17 317 14.5 27.4 0.03 0.03 0.03 83 1015.3
20260507103533 17 338 14.5 27.4 0.03 0.03 0.03 83 1015.4
20260507103155 17 323 9.7 25.7 0.03 0.03 0.03 83 1015.4
20260507102521 17 265 12.9 22.5 0.03 0.03 0.03 82 1015.1
20260507102037 17 269 11.3 22.5 0.03 0.03 0.03 82 1015.3
20260507101649 17 289 9.7 16.1 0.03 0.03 0.03 82 1015.1
20260507101038 17 265 6.4 14.5 0.03 0.03 0.03 82 1015.2
20260507100519 17 57 9.7 22.5 0.03 0.03 0.03 82 1015.4
20260507100154 18 311 9.7 22.5 0.03 0.03 0.03 82 1015.5
20260507095520 18 334 6.4 14.5 0.03 0.03 0.03 81 1015.2
20260507095032 18 257 6.4 14.5 0.00 0.00 0.00 81 1015.2
20260507094625 18 261 6.4 16.1 0.00 0.00 0.00 81 1015.2
20260507094017 18 70 6.4 17.7 0.00 0.00 0.00 81 1015.3
20260507093527 18 51 4.8 17.7 0.00 0.00 0.00 81 1015.4
20260507093112 18 51 6.4 16.1 0.00 0.00 0.00 81 1015.5
20260507092546 18 296 6.4 16.1 0.00 0.00 0.00 81 1015.3
20260507092025 18 310 6.4 17.7 0.00 0.00 0.00 81 1015.3
20260507091653 18 259 8.0 17.7 0.00 0.00 0.00 80 1015.2
20260507091023 18 304 9.7 17.7 0.00 0.00 0.00 80 1015.4
20260507090542 18 317 6.4 16.1 0.00 0.00 0.00 80 1015.3
20260507090157 18 279 8.0 17.7 0.00 0.00 0.00 80 1015.3
20260507085533 18 282 8.0 22.5 0.00 0.00 0.00 79 1015.5
20260507085016 18 54 9.7 20.9 0.00 0.00 0.00 79 1015.5
20260507084624 18 284 11.3 20.9 0.00 0.00 0.00 79 1015.4
20260507084032 18 300 8.0 22.5 0.00 0.00 0.00 79 1015.4
20260507083517 18 323 8.0 22.5 0.00 0.00 0.00 79 1015.5
20260507083147 18 309 6.4 17.7 0.00 0.00 0.00 79 1015.6
20260507082539 18 268 9.7 17.7 0.00 0.00 0.00 79 1015.5
20260507082023 18 268 6.4 16.1 0.00 0.00 0.00 79 1015.7
20260507081644 18 259 9.7 19.3 0.00 0.00 0.00 79 1015.5
20260507081038 18 289 9.7 19.3 0.00 0.00 0.00 80 1015.6
20260507080532 18 286 6.4 14.5 0.00 0.00 0.00 80 1015.7
20260507080151 18 41 4.8 14.5 0.00 0.00 0.00 80 1015.4
20260507075517 18 291 4.8 16.1 0.00 0.00 0.00 80 1015.7
20260507075033 18 55 6.4 16.1 0.00 0.00 0.00 80 1015.9
20260507074630 18 334 4.8 14.5 0.00 0.00 0.00 81 1016.1
20260507074017 18 293 6.4 12.9 0.00 0.00 0.00 81 1015.9
20260507073524 18 262 6.4 12.9 0.00 0.00 0.00 81 1016.1
20260507073135 18 319 6.4 16.1 0.00 0.00 0.00 81 1016.0
20260507072536 18 282 8.0 19.3 0.00 0.00 0.00 81 1016.1
20260507072031 18 265 4.8 19.3 0.00 0.00 0.00 81 1016.3
20260507071630 17 304 6.4 16.1 0.00 0.00 0.00 82 1016.3
20260507071027 17 296 6.4 14.5 0.00 0.00 0.00 82 1016.3
20260507070542 17 309 6.4 14.5 0.00 0.00 0.00 81 1016.4
20260507070116 17 24 6.4 20.9 0.00 0.00 0.00 81 1016.5
20260507065539 18 314 8.0 20.9 0.00 0.00 0.00 81 1016.5
20260507065033 18 332 8.0 17.7 0.00 0.00 0.00 81 1016.4
20260507064700 18 265 6.4 17.7 0.00 0.00 0.00 80 1016.5
20260507064041 18 317 8.0 19.3 0.00 0.00 0.00 80 1016.7
20260507063527 18 265 9.7 19.3 0.00 0.00 0.00 80 1016.4
20260507063141 18 275 9.7 22.5 0.00 0.00 0.00 80 1016.4
20260507062519 17 262 11.3 22.5 0.00 0.00 0.00 80 1016.5
20260507062033 17 272 8.0 19.3 0.00 0.00 0.00 80 1016.6
20260507061926 17 265 6.4 17.7 0.00 0.00 0.00 80 1016.7
20260507061757 17 265 6.4 17.7 0.00 0.00 0.00 80 1016.7